Tracking 31027 objects as of 19-Jul-2025
HD Live streaming from Space Station
objects crossing your sky now

EKRAN 7

Track EKRAN 7 now!
EKRAN 7 is classified as:


NORAD ID: 12564
Int'l Code: 1981-061A
Perigee: 35,764.3 km
Apogee: 35,792.2 km
Inclination: 7.3 °
Period: 1,435.3 minutes
Semi major axis: 42149 km
RCS: 3.9811 m2 (large)
Launch date: June 26, 1981
Source: Commonwealth of Independent States (former USSR) (CIS)
Launch site: TYURATAM MISSILE AND SPACE COMPLEX (TTMTR)
Your satellite tracking list
CREW DRAGON DEMO-2 DEB
Track 1 satellite(s)




NASA's NSSDC Master Catalog

Two Line Element Set (TLE):
1 12564U 81061A   25199.88097436 -.00000023  00000-0  00000+0 0  9990
2 12564   7.3167 295.9584 0003311  62.3801 323.6924  1.00327086126166
Source of the keplerian elements: AFSPC